sat.trackr.live / text

‹ back to catalog

STARLINK-4800

NORAD 53854 · 2022-114AN

PAYLOAD ACTIVE UNKNOWN

§ Identity

Operator
Country
US
Launch date
2022-09-19
Launch site
AFETR
Launch vehicle
Mass (kg)
RCS (m²)

Purposes: comms

External: N2YO · Heavens-Above · Gunter

§ Orbital elements

Epoch: 2026-09-20T05:56:43.761408Z

Period
94.01 min
Inclination
53.1602°
Eccentricity
0.0001252
Mean motion
15.31704661 rev/d
Perigee alt
469.9 km
Apogee alt
471.6 km
Semi-major
6,848.9 km
B*
4.4955e-5
RAAN
120.2370°
Arg perigee
109.4904°
Mean anomaly
250.6233°
Rev number
22,262

§ Raw data

STARLINK-48001 53854U 22114AN  26263.24772872  .00001030  00000+0  44955-4 0  99972 53854  53.1602 120.2370 0001252 109.4904 250.6233 15.31704661222625

JSON: /api/v1/satellites/53854 · /tle

For live sub-satellite position, see the globe view (requires WebGL).

§ Visibility from observer

Set your observer location to see the next 7 days of passes ≥ 10°. The values pass through the URL so the page stays shareable.

No JS? Fill the form by hand. The geolocation button needs JavaScript.